Tracking 34142 objects as of 18-May-2026
HD Live streaming from Space Station
objects crossing your sky now

QIANFAN-110

Track QIANFAN-110 now!
10-day predictions
QIANFAN-110 is classified as:


NORAD ID: 68637
Int'l Code: 2026-075B
Perigee: 981.8 km
Apogee: 993.2 km
Inclination: 89.0 °
Period: 104.7 minutes
Semi major axis: 7358 km
RCS: Unknown
Launch date: April 7, 2026
Source: People's Republic of China (PRC)
Launch site: Wenchang Satellite Launch Center (WSC)
Your satellite tracking list
Your tracking list is empty




NASA's NSSDC Master Catalog

Two Line Element Set (TLE):
1 68637U 26075B   26137.39766447 -.01889583  00000-0 -21228+1 0  9994
2 68637  88.9872 324.2150 0007734 111.4112 248.7879 13.75359784  5612
Source of the keplerian elements: AFSPC